TimeEST,TemperatureF,Dew PointF,Humidity,Sea Level PressureIn,VisibilityMPH,Wind Direction,Wind SpeedMPH,Gust SpeedMPH,PrecipitationIn,Events,Conditions,WindDirDegrees,DateUTC
12:53 AM,28.4,21.2,74,30.11,10.0,SSW,12.7,-,N/A,,Overcast,210,2012-12-12 05:53:00
1:53 AM,28.9,21.9,75,30.17,10.0,SSW,11.5,-,N/A,,Mostly Cloudy,210,2012-12-12 06:53:00
2:53 AM,30.0,21.9,72,30.18,10.0,SW,12.7,-,0.00,,Overcast,220,2012-12-12 07:53:00
3:53 AM,30.0,23.0,75,30.20,9.0,SW,13.8,-,N/A,,Overcast,220,2012-12-12 08:53:00
4:53 AM,30.0,23.0,75,30.21,10.0,SSW,12.7,-,0.00,,Overcast,210,2012-12-12 09:53:00
5:53 AM,28.9,23.0,78,30.22,10.0,South,11.5,-,N/A,,Overcast,190,2012-12-12 10:53:00
6:53 AM,26.6,21.2,80,30.21,9.0,SSW,11.5,-,N/A,,Partly Cloudy,210,2012-12-12 11:53:00
7:53 AM,28.0,21.9,78,30.27,9.0,SW,9.2,-,N/A,,Mostly Cloudy,220,2012-12-12 12:53:00
8:53 AM,28.9,23.0,78,30.29,8.0,SSW,9.2,-,N/A,,Partly Cloudy,210,2012-12-12 13:53:00
9:53 AM,32.0,24.1,73,30.31,10.0,SW,12.7,-,N/A,,Mostly Cloudy,220,2012-12-12 14:53:00
10:53 AM,36.0,25.0,64,30.34,10.0,SW,8.1,-,N/A,,Mostly Cloudy,220,2012-12-12 15:53:00
11:53 AM,39.0,26.1,60,30.33,10.0,SW,13.8,19.6,N/A,,Partly Cloudy,220,2012-12-12 16:53:00
12:53 PM,41.0,21.9,47,30.32,10.0,WSW,16.1,-,N/A,,Partly Cloudy,250,2012-12-12 17:53:00
1:53 PM,43.0,21.9,43,30.32,10.0,SSW,18.4,-,N/A,,Scattered Clouds,210,2012-12-12 18:53:00
2:53 PM,43.0,21.0,42,30.31,10.0,SW,16.1,23.0,N/A,,Scattered Clouds,220,2012-12-12 19:53:00
3:53 PM,42.1,21.0,43,30.32,10.0,SW,11.5,-,N/A,,Scattered Clouds,220,2012-12-12 20:53:00
4:53 PM,39.0,21.9,50,30.33,10.0,SSW,6.9,-,N/A,,Partly Cloudy,200,2012-12-12 21:53:00
5:53 PM,36.0,21.9,57,30.34,10.0,South,6.9,-,N/A,,Partly Cloudy,180,2012-12-12 22:53:00
6:53 PM,34.0,21.9,61,30.35,10.0,South,6.9,-,N/A,,Clear,180,2012-12-12 23:53:00
7:53 PM,34.0,21.9,61,30.35,10.0,South,6.9,-,N/A,,Clear,180,2012-12-13 00:53:00
8:53 PM,34.0,23.0,64,30.35,10.0,South,10.4,-,N/A,,Clear,180,2012-12-13 01:53:00
9:53 PM,33.1,23.0,66,30.35,10.0,South,9.2,-,N/A,,Clear,180,2012-12-13 02:53:00
10:53 PM,32.0,23.0,69,30.35,10.0,South,9.2,-,N/A,,Clear,190,2012-12-13 03:53:00
11:53 PM,30.9,21.9,69,30.35,10.0,South,9.2,-,N/A,,Clear,180,2012-12-13 04:53:00